EW6361 Weather Reports


time (UTC)temp
F
wind
direction
speed
knots
gust
knots
rain 1hr
in
rain 24hr
in
rain mn
in
humidity
%
barometer
mb
20260504000022 70 173 3.5 0.0 0.00 0.00 0.00 36 1013.0
20260503234522 71 200 3.5 0.0 0.00 0.00 0.00 38 1013.0
20260503233011 71 200 3.5 0.0 0.00 0.00 0.00 40 1013.0
20260503231516 72 219 4.3 0.0 0.00 0.00 0.00 40 1013.0
20260503230010 72 174 3.5 0.0 0.00 0.00 0.00 42 1013.0
20260503224509 72 238 3.5 0.0 0.00 0.00 0.00 43 1013.0
20260503223009 72 247 3.5 0.0 0.00 0.00 0.00 43 1013.0
20260503221509 73 211 4.3 0.0 0.00 0.00 0.00 43 1013.0
20260503220009 73 262 4.3 0.0 0.00 0.00 0.00 41 1013.0
20260503214508 73 157 3.5 0.0 0.00 0.00 0.00 39 1013.2
20260503213053 73 183 3.5 0.0 0.00 0.00 0.00 39 1013.4
20260503211554 73 201 4.3 0.0 0.00 0.00 0.00 38 1013.5
20260503210052 74 176 3.5 0.0 0.00 0.00 0.00 35 1013.9
20260503204557 73 183 3.5 0.0 0.00 0.00 0.00 36 1014.0
20260503203052 73 234 4.3 0.0 0.00 0.00 0.00 36 1014.1
20260503201550 74 252 4.3 0.0 0.00 0.00 0.00 40 1014.2
20260503200047 74 9 0.9 0.0 0.00 0.00 0.00 32 1014.5
20260503194548 74 58 2.6 0.0 0.00 0.00 0.00 32 1014.8
20260503193029 74 54 2.6 0.0 0.00 0.00 0.00 32 1015.0
20260503191528 74 30 0.9 0.0 0.00 0.00 0.00 31 1015.3
20260503190034 73 26 1.7 0.0 0.00 0.00 0.00 35 1015.6
20260503184511 72 42 2.6 0.0 0.00 0.00 0.00 33 1015.7
20260503183015 72 25 3.5 0.0 0.00 0.00 0.00 35 1016.0
20260503181510 72 66 2.6 0.0 0.00 0.00 0.00 33 1016.1
20260503180011 72 15 3.5 0.0 0.00 0.00 0.00 35 1016.3
20260503174506 71 51 5.2 0.0 0.00 0.00 0.00 34 1016.3
20260503173004 71 58 5.2 0.0 0.00 0.00 0.00 37 1016.4
20260503171502 70 16 5.2 0.0 0.00 0.00 0.00 34 1016.6
20260503081546 0 0.0 0.0 0.00 0.00 0.00 1014.8
20260503071524 158 15 6.1 0.0 0.00 0.00 0.00 100 1014.5
20260503054529 65 22 7.8 0.0 0.00 0.00 0.00 100 1014.2
20260503053020 63 13 6.1 0.0 0.00 0.00 0.00 100 1014.1
20260503051559 64 5 6.1 0.0 0.00 0.00 0.00 100 1014.1
20260503050052 63 9 4.3 0.0 0.00 0.00 0.00 32 1014.0
20260503044537 63 342 5.2 0.0 0.00 0.00 0.00 33 1014.0
20260503043032 63 345 4.3 0.0 0.00 0.00 0.00 34 1013.9
20260503041527 63 338 5.2 0.0 0.00 0.00 0.00 34 1013.5
20260503040026 63 344 5.2 0.0 0.00 0.00 0.00 34 1013.5
20260503034518 64 344 5.2 0.0 0.00 0.00 0.00 20 1013.4
20260503033024 64 355 7.0 0.0 0.00 0.00 0.00 34 1013.3
20260503031510 64 346 7.8 0.0 0.00 0.00 0.00 33 1013.2
20260503030005 65 5 8.7 0.0 0.00 0.00 0.00 33 1013.0
20260503024557 65 360 7.8 0.0 0.00 0.00 0.00 33 1013.0
20260503023046 65 11 9.6 0.0 0.00 0.00 0.00 34 1012.8
20260503021547 65 15 8.7 0.0 0.00 0.00 0.00 34 1012.7
20260503020039 65 360 9.6 0.0 0.00 0.00 0.00 34 1012.5
20260503014544 66 5 10.4 0.0 0.00 0.00 0.00 33 1012.3
20260503013033 66 355 10.4 0.0 0.00 0.00 0.00 28 1012.0
20260503011522 67 10 10.4 0.0 0.00 0.00 0.00 33 1011.8
20260503010018 67 355 10.4 0.0 0.00 0.00 0.00 33 1011.4
20260503004515 74 360 9.6 0.0 0.00 0.00 0.00 100 1011.1
20260503003059 69 360 11.3 0.0 0.00 0.00 0.00 100 1010.8
20260503001556 79 350 11.3 0.0 0.00 0.00 0.00 100 1010.4